[[{"header":{"parameterUnit":"m.s-1","parameterCategory":1,"la1":30.2991,"la2":30.254,"lo1":-89.0895,"lo2":-89.0444,"dy":0.0017,"dx":0.0017,"nx":28,"ny":28,"refTime":"2025-06-21T09:00:00:Z","depth":0,"parameterNumber":2,"parameterNumberName":"U-component_of_WINDS"},"data":[0,0,0,0,0,0,0,0,0,0,0,0,0,0,0,0,0,0,0,0,0,0,0,0,0,0,0,0,0,0,0,0,0,0,0,0,0,0,0,0,0,0,0,0,0,0,0,0,0,0,0,0,0,0,0,0,0,0,-0.6872,-0.6872,0,-0.6847,-0.6846,-0.6846,-0.6828,-0.6827,-0.6827,-0.6827,-0.6799,-0.6798,-0.6798,0,0,0,0,0,0,0,0,0,0,0,0,0,-0.6902,-0.6902,-0.6872,-0.6872,-0.6871,-0.6847,-0.6846,-0.6846,-0.6828,-0.6827,-0.6827,-0.6827,-0.6799,-0.6799,-0.6798,0,0,0,0,0,0,0,0,0,0,0,0,0,-0.6884,-0.6902,-0.6872,-0.6859,-0.6858,-0.6847,-0.6846,-0.6846,-0.6828,-0.6827,-0.6827,-0.6827,-0.6799,-0.6799,-0.6798,-0.6797,0,0,-0.6795,-0.6795,0,0,0,0,0,0,0,0,-0.6885,-0.6883,-0.6861,-0.686,-0.6859,-0.684,-0.6847,-0.6829,-0.6828,-0.6839,-0.6827,-0.6827,-0.6813,-0.6811,-0.6806,-0.6795,-0.6794,-0.6795,-0.6794,-0.6794,-0.6794,0,0,0,0,0,0,0,-0.6887,-0.6884,-0.6862,-0.6861,-0.6859,-0.6854,-0.6851,-0.6843,-0.6827,-0.6838,-0.6837,-0.6834,-0.6812,-0.6807,-0.6806,-0.6794,-0.6795,-0.6794,-0.6794,-0.6793,-0.6781,-0.6781,0,0,0,0,0,0,-0.689,-0.6885,-0.6863,-0.6861,-0.6872,-0.6854,-0.6851,-0.6846,-0.6828,-0.6824,-0.6834,-0.6833,-0.6809,-0.6807,-0.6805,-0.6802,-0.6794,-0.6793,-0.6793,-0.6781,-0.6781,-0.6781,0,0,0,0,0,0,-0.6891,-0.6888,-0.6864,-0.6873,-0.6869,-0.6854,-0.6849,-0.6846,-0.6841,-0.6825,-0.6822,-0.6833,-0.6809,-0.6806,-0.6799,-0.6801,-0.6793,-0.6792,-0.678,-0.6781,-0.6781,-0.6798,0,0,0,0,0,0,-0.6892,-0.6889,-0.6889,-0.6873,-0.6869,-0.6859,-0.6849,-0.6846,-0.684,-0.6839,-0.6822,-0.6819,-0.6808,-0.68,-0.6798,-0.68,-0.6791,-0.678,-0.678,-0.6781,-0.6797,-0.6799,-0.68,0,0,0,0,0,-0.6893,-0.6894,-0.6889,-0.6886,-0.6869,-0.686,-0.6857,-0.6845,-0.684,-0.684,-0.6829,-0.682,-0.6801,-0.68,-0.6797,-0.6799,-0.678,-0.678,-0.6781,-0.6796,-0.6799,-0.68,0,0,0,0,0,0,-0.6909,-0.6892,-0.6886,-0.6882,-0.6872,-0.6856,-0.6855,-0.6847,-0.6839,-0.6837,-0.6822,-0.6819,-0.6813,-0.6805,-0.6804,-0.6797,-0.6789,-0.6789,-0.6802,-0.6804,-0.6806,-0.6808,-0.679,0,0,0,0,0,-0.6913,-0.6907,-0.6892,-0.689,-0.6886,-0.6871,-0.6867,-0.6858,-0.6848,-0.6843,-0.6832,-0.6822,-0.6813,-0.6808,-0.68,-0.6796,-0.6792,-0.6795,-0.6797,-0.6798,-0.6798,-0.6796,-0.6797,-0.6783,-0.6783,-0.6783,0,0,-0.6919,-0.6909,-0.6906,-0.6893,-0.6885,-0.6879,-0.6868,-0.6862,-0.6858,-0.6842,-0.6836,-0.6827,-0.6814,-0.6809,-0.6806,-0.6802,-0.6802,-0.6799,-0.68,-0.68,-0.6797,-0.6798,-0.6799,-0.6783,-0.6783,-0.6783,0,0,-0.6928,-0.692,-0.6918,-0.691,-0.6898,-0.6888,-0.6888,-0.6873,-0.6867,-0.686,-0.6848,-0.6842,-0.6828,-0.682,-0.6813,-0.682,-0.6811,-0.6817,-0.6825,-0.6823,-0.6824,-0.6825,-0.6827,-0.6828,-0.6817,-0.6817,-0.6817,0,-0.6938,-0.6929,-0.6917,-0.6912,-0.6907,-0.6893,-0.689,-0.6883,-0.6868,-0.6865,-0.686,-0.6843,-0.6833,-0.6826,-0.6828,-0.6823,-0.6822,-0.6819,-0.6825,-0.6826,-0.6827,-0.6829,-0.683,-0.6818,-0.6818,-0.6818,-0.6818,0,-0.6942,-0.6936,-0.6935,-0.6923,-0.6917,-0.6913,-0.69,-0.6895,-0.6887,-0.6878,-0.6871,-0.6859,-0.6848,-0.6846,-0.6837,-0.6837,-0.6835,-0.6828,-0.6821,-0.6829,-0.6831,-0.6831,-0.6819,-0.6819,-0.6819,-0.6819,0,0,-0.696,-0.6941,-0.6941,-0.6935,-0.6921,-0.6916,-0.6911,-0.6901,-0.6898,-0.6888,-0.6884,-0.6873,-0.6866,-0.6859,-0.685,-0.6848,-0.6854,-0.6841,-0.6841,-0.6844,-0.6853,-0.6858,-0.686,-0.6848,-0.6848,-0.6848,-0.6854,0,-0.6967,-0.6959,-0.6948,-0.6944,-0.6938,-0.6925,-0.6921,-0.6912,-0.6903,-0.6897,-0.6887,-0.6879,-0.6871,-0.6867,-0.6865,-0.6854,-0.6855,-0.6853,-0.6843,-0.6843,-0.6847,-0.686,-0.6866,-0.6872,-0.6855,-0.6855,-0.6855,0,-0.6974,-0.6966,-0.6962,-0.6948,-0.6945,-0.6942,-0.6932,-0.6926,-0.6915,-0.6909,-0.6901,-0.6891,-0.6885,-0.6879,-0.687,-0.6869,-0.6864,-0.6858,-0.6858,-0.6857,-0.685,-0.686,-0.6874,-0.6875,-0.6856,-0.6856,-0.6855,0,-0.6989,-0.6977,-0.6972,-0.6968,-0.6952,-0.695,-0.6943,-0.6931,-0.6926,-0.6917,-0.6914,-0.6904,-0.6898,-0.6891,-0.6878,-0.6874,-0.6871,-0.6863,-0.6865,-0.6866,-0.6865,-0.6865,-0.6879,-0.6862,-0.6862,-0.6862,-0.6862,0,-0.6998,-0.6995,-0.6979,-0.6976,-0.6973,-0.696,-0.6957,-0.6949,-0.6939,-0.6934,-0.6922,-0.6917,-0.6901,-0.6894,-0.6884,-0.6879,-0.6876,-0.6871,-0.6868,-0.6872,-0.6873,-0.6869,-0.6868,-0.6862,-0.6862,-0.6862,-0.6862,0,-0.7013,-0.7002,-0.6997,-0.6982,-0.6978,-0.6977,-0.6964,-0.6961,-0.6952,-0.6946,-0.6943,-0.6929,-0.692,-0.6907,-0.6895,-0.6888,-0.6884,-0.688,-0.6888,-0.6887,-0.689,-0.689,-0.6902,-0.6903,-0.6885,-0.6885,-0.6885,0,-0.702,-0.7018,-0.7004,-0.7,-0.6994,-0.6988,-0.6983,-0.697,-0.6965,-0.6952,-0.695,-0.6941,-0.6933,-0.692,-0.6908,-0.6899,-0.6894,-0.6899,-0.6892,-0.6896,-0.6894,-0.6895,-0.6894,-0.69,-0.6901,-0.6901,-0.6901,0,-0.7033,-0.7028,-0.7021,-0.7013,-0.7007,-0.7,-0.6992,-0.6989,-0.6974,-0.6969,-0.6961,-0.6955,-0.6942,-0.6934,-0.6922,-0.6914,-0.6905,-0.6903,-0.6903,-0.6907,-0.6912,-0.691,-0.6893,-0.6903,-0.6903,-0.6903,-0.6902,-0.6902,-0.7045,-0.7043,-0.7032,-0.7025,-0.7018,-0.7011,-0.7007,-0.6998,-0.6991,-0.6981,-0.6973,-0.6965,-0.6954,-0.6938,-0.6931,-0.6924,-0.692,-0.692,-0.692,-0.6921,-0.6922,-0.6913,-0.6922,-0.6922,-0.6922,-0.6922,-0.6922,0,-0.7058,-0.7051,-0.7044,-0.7034,-0.7028,-0.7021,-0.7011,-0.7007,-0.7001,-0.6991,-0.6984,-0.6975,-0.6966,-0.6953,-0.6944,-0.6941,-0.6936,-0.6939,-0.6939,-0.6937,-0.6926,-0.6927,-0.6943,-0.6943,-0.6943,-0.6943,-0.6943,-0.6943,-0.7064,-0.706,-0.7053,-0.7045,-0.7038,-0.7031,-0.7026,-0.7019,-0.7012,-0.7002,-0.6995,-0.6987,-0.6976,-0.6966,-0.6957,-0.6954,-0.6951,-0.6955,-0.695,-0.694,-0.6938,-0.6936,-0.6937,-0.6954,-0.6954,-0.6961,-0.6961,-0.6962]},{"header":{"parameterUnit":"m.s-1","parameterCategory":1,"la1":30.2991,"la2":30.254,"lo1":-89.0895,"lo2":-89.0444,"dy":0.0017,"dx":0.0017,"nx":28,"ny":28,"refTime":"2025-06-21T09:00:00:Z","depth":0,"parameterNumber":3,"parameterNumberName":"V-component_of_WINDS"},"data":[0,0,0,0,0,0,0,0,0,0,0,0,0,0,0,0,0,0,0,0,0,0,0,0,0,0,0,0,0,0,0,0,0,0,0,0,0,0,0,0,0,0,0,0,0,0,0,0,0,0,0,0,0,0,0,0,0,0,0.7715,0.7715,0,0.7704,0.7704,0.7703,0.7716,0.7716,0.7717,0.7717,0.7703,0.7702,0.7701,0,0,0,0,0,0,0,0,0,0,0,0,0,0.7744,0.7744,0.7715,0.7715,0.7715,0.7704,0.7704,0.7703,0.7716,0.7716,0.7717,0.7718,0.7703,0.7702,0.7701,0,0,0,0,0,0,0,0,0,0,0,0,0,0.7732,0.7743,0.7715,0.772,0.772,0.7704,0.7704,0.7703,0.7716,0.7716,0.7717,0.7718,0.7703,0.7702,0.7701,0.7678,0,0,0.7697,0.7696,0,0,0,0,0,0,0,0,0.7733,0.7731,0.7719,0.7719,0.772,0.7712,0.7709,0.7695,0.7716,0.7717,0.7717,0.7718,0.7705,0.7704,0.77,0.7678,0.7677,0.7697,0.7696,0.7695,0.7695,0,0,0,0,0,0,0,0.7733,0.7731,0.771,0.7719,0.7719,0.7721,0.772,0.7706,0.7707,0.7717,0.7718,0.7717,0.7705,0.7701,0.77,0.7677,0.7697,0.7696,0.7695,0.7694,0.7635,0.7634,0,0,0,0,0,0,0.7734,0.7732,0.7711,0.771,0.7728,0.772,0.7719,0.7714,0.7707,0.7707,0.7716,0.7717,0.7703,0.7701,0.7699,0.7672,0.7695,0.7694,0.7694,0.7636,0.7635,0.7634,0,0,0,0,0,0,0.7735,0.7732,0.7711,0.7721,0.7719,0.7719,0.7713,0.7713,0.7709,0.7707,0.7706,0.7712,0.7703,0.7701,0.7684,0.7671,0.7694,0.7693,0.7637,0.7636,0.7634,0.7617,0,0,0,0,0,0,0.7736,0.7732,0.7725,0.7721,0.7718,0.7697,0.7712,0.7712,0.7707,0.7709,0.7702,0.7702,0.7704,0.7685,0.7682,0.767,0.7692,0.7638,0.7636,0.7635,0.7619,0.7615,0.7613,0,0,0,0,0,0.7737,0.772,0.7724,0.7721,0.7709,0.7696,0.7694,0.7697,0.7706,0.7698,0.7696,0.7702,0.7674,0.7683,0.768,0.7667,0.7639,0.7637,0.7635,0.762,0.7616,0.7613,0,0,0,0,0,0,0.772,0.7719,0.7724,0.7706,0.7701,0.7698,0.7688,0.7693,0.7685,0.7686,0.769,0.7688,0.767,0.7667,0.7678,0.7645,0.7657,0.7655,0.7647,0.7643,0.764,0.7641,0.7691,0,0,0,0,0,0.7715,0.7706,0.7705,0.7689,0.7686,0.7687,0.7682,0.7685,0.768,0.7677,0.7675,0.7668,0.7658,0.7651,0.7641,0.7619,0.7617,0.7608,0.7605,0.7603,0.76,0.7587,0.7583,0.7628,0.7628,0.7628,0,0,0.7703,0.7701,0.7695,0.7685,0.7682,0.7671,0.7685,0.7674,0.7665,0.7675,0.7659,0.7656,0.765,0.763,0.7621,0.7627,0.7587,0.7601,0.7599,0.7597,0.7585,0.758,0.7577,0.7627,0.7627,0.7627,0,0,0.7675,0.7674,0.766,0.7656,0.7652,0.7653,0.7649,0.7646,0.7645,0.7629,0.7636,0.7625,0.7608,0.7602,0.7597,0.7568,0.7573,0.7565,0.7548,0.7536,0.7532,0.7529,0.7517,0.7513,0.7562,0.7562,0.7562,0,0.7661,0.7646,0.7652,0.7639,0.7634,0.7644,0.7629,0.7625,0.7617,0.7613,0.762,0.7598,0.7594,0.7572,0.7565,0.7562,0.7557,0.7565,0.7532,0.7529,0.7526,0.7515,0.7511,0.7561,0.7561,0.7562,0.7562,0,0.7628,0.7617,0.7606,0.7599,0.7593,0.7579,0.7582,0.7575,0.7579,0.7579,0.7561,0.7557,0.7547,0.7542,0.7545,0.7521,0.7524,0.7532,0.7544,0.7521,0.751,0.7506,0.756,0.756,0.7561,0.7561,0,0,0.7588,0.7585,0.7581,0.7577,0.7573,0.7564,0.7551,0.7542,0.7535,0.7529,0.7517,0.7502,0.7509,0.7503,0.7506,0.7495,0.7471,0.7504,0.7504,0.7497,0.7442,0.7435,0.743,0.7475,0.7474,0.7473,0.7442,0,0.756,0.7537,0.7542,0.752,0.7509,0.7519,0.7507,0.7502,0.7502,0.7493,0.7492,0.7481,0.7492,0.7488,0.7478,0.7476,0.746,0.7479,0.7462,0.7461,0.7462,0.7425,0.7417,0.7388,0.7438,0.7437,0.7437,0,0.7523,0.7517,0.7493,0.7491,0.7486,0.7476,0.7467,0.7459,0.7453,0.7454,0.7448,0.7452,0.7438,0.7452,0.7431,0.7444,0.7437,0.7435,0.7434,0.7431,0.7446,0.7419,0.7379,0.7373,0.7431,0.7431,0.7432,0,0.7495,0.7481,0.7465,0.7462,0.7458,0.745,0.7448,0.7444,0.7438,0.743,0.7426,0.7417,0.7411,0.7403,0.7405,0.7415,0.7383,0.7397,0.7381,0.7381,0.7373,0.7373,0.7329,0.7371,0.7371,0.7371,0.7372,0,0.7461,0.7446,0.7452,0.7442,0.7425,0.7431,0.7413,0.7413,0.7409,0.7398,0.7406,0.7395,0.7399,0.7388,0.7389,0.7371,0.7368,0.7367,0.7367,0.7366,0.7365,0.736,0.7361,0.737,0.7371,0.7371,0.7371,0,0.7426,0.743,0.7413,0.7411,0.741,0.7398,0.7396,0.7386,0.7387,0.7373,0.737,0.7371,0.7358,0.736,0.7346,0.7347,0.7323,0.7327,0.7325,0.7325,0.7309,0.731,0.7258,0.7251,0.73,0.73,0.7299,0,0.7404,0.7392,0.739,0.7384,0.7382,0.7372,0.7366,0.7371,0.7364,0.7357,0.7348,0.7337,0.7328,0.7307,0.7306,0.7295,0.7297,0.728,0.7295,0.7294,0.7295,0.7295,0.7293,0.7276,0.7276,0.7275,0.7275,0,0.7363,0.7365,0.7357,0.7349,0.7342,0.7336,0.7331,0.7325,0.733,0.7321,0.731,0.7303,0.7289,0.7277,0.7267,0.7264,0.7269,0.727,0.7266,0.7263,0.7262,0.726,0.7315,0.7271,0.7271,0.7272,0.7272,0.7272,0.7332,0.7322,0.7319,0.731,0.7306,0.7301,0.7292,0.7292,0.7282,0.7272,0.7276,0.7262,0.7256,0.7243,0.7239,0.7228,0.7234,0.7227,0.7225,0.7223,0.7221,0.7265,0.7226,0.7226,0.7226,0.7226,0.7226,0,0.729,0.7289,0.7281,0.7273,0.7265,0.7273,0.7268,0.726,0.7248,0.7243,0.7235,0.7221,0.7209,0.7207,0.7196,0.7187,0.7189,0.7184,0.7183,0.7182,0.7217,0.7221,0.7182,0.7182,0.7182,0.7182,0.7182,0.7182,0.7268,0.7251,0.7253,0.7235,0.7234,0.7221,0.7217,0.7212,0.7208,0.7192,0.7183,0.7182,0.7178,0.7167,0.7156,0.7156,0.7151,0.7144,0.7144,0.7176,0.718,0.7184,0.7188,0.7143,0.7143,0.711,0.711,0.711]}]]